Location: Moreno
(33.9175°N, 117.1578°W)
Time: 05:28:15
(UTC+00:00)

Cosmos 2315 Rocket - Pass Details

Date: 18 April 2024
Orbit: 965 x 1002 km, 82.9° (Epoch: 28 May)

Event Time Altitude Azimuth Distance (km) Brightness Sun altitude
Rises 12:34:14 0° 347° (NNW) 3,659 7.1 -8.6°
Reaches altitude 10° 12:36:47 10° 343° (NNW) 2,709 6.4 -8.1°
Maximum altitude 12:42:46 53° 269° (W) 1,178 4.1 -6.9°
Drops below altitude 10° 12:48:43 10° 194° (SSW) 2,701 6.0 -5.8°
Sets 12:51:17 0° 189° (S) 3,648 6.7 -5.2°
